| time (UTC) | temp C | wind direction | speed KPH | gust KPH | rain 1hr cm | rain 24hr cm | rain mn cm | humidity % | barometer mb |
| 20260503004520 | 14 | 293 | 4.8 | 11.3 | 0.00 | 0.00 | 0.00 | 57 | 1002.9 |
| 20260503003541 | 15 | 270 | 4.8 | 8.0 | 0.00 | 0.00 | 0.00 | 57 | 1002.7 |
| 20260503002520 | 15 | 270 | 4.8 | 11.3 | 0.00 | 0.00 | 0.00 | 56 | 1002.5 |
| 20260503001518 | 15 | 270 | 4.8 | 11.3 | 0.00 | 0.00 | 0.00 | 55 | 1002.3 |
| 20260503000519 | 15 | 270 | 3.2 | 9.7 | 0.00 | 0.00 | 0.00 | 54 | 1002.3 |
| 20260502235520 | 15 | 270 | 1.6 | 4.8 | 0.00 | 0.00 | 0.00 | 54 | 1002.3 |
| 20260502234520 | 15 | 248 | 1.6 | 3.2 | 0.00 | 0.00 | 0.00 | 54 | 1002.2 |
| 20260502233520 | 15 | 248 | 1.6 | 6.4 | 0.00 | 0.00 | 0.00 | 53 | 1002.1 |
| 20260502232523 | 15 | 270 | 1.6 | 3.2 | 0.00 | 0.00 | 0.00 | 53 | 1002.1 |
| 20260502231520 | 16 | 248 | 1.6 | 3.2 | 0.00 | 0.00 | 0.00 | 53 | 1002.1 |
| 20260502230520 | 15 | 248 | 1.6 | 8.0 | 0.00 | 0.00 | 0.00 | 53 | 1002.2 |
| 20260502225520 | 16 | 248 | 1.6 | 4.8 | 0.00 | 0.00 | 0.00 | 53 | 1002.3 |
| 20260502224519 | 16 | 0.0 | 4.8 | 0.00 | 0.00 | 0.00 | 53 | 1002.2 | |
| 20260502223520 | 16 | 225 | 1.6 | 6.4 | 0.00 | 0.00 | 0.00 | 52 | 1002.3 |
| 20260502222520 | 16 | 248 | 1.6 | 4.8 | 0.00 | 0.00 | 0.00 | 51 | 1002.3 |
| 20260502221520 | 16 | 248 | 1.6 | 6.4 | 0.00 | 0.00 | 0.00 | 51 | 1002.3 |
| 20260502220520 | 17 | 225 | 3.2 | 6.4 | 0.00 | 0.00 | 0.00 | 50 | 1002.4 |
| 20260502215520 | 17 | 270 | 4.8 | 14.5 | 0.00 | 0.00 | 0.00 | 49 | 1002.4 |
| 20260502214539 | 17 | 270 | 4.8 | 11.3 | 0.00 | 0.00 | 0.00 | 48 | 1002.5 |
| 20260502213520 | 17 | 270 | 8.0 | 14.5 | 0.00 | 0.00 | 0.00 | 48 | 1002.6 |
| 20260502212539 | 17 | 270 | 6.4 | 14.5 | 0.00 | 0.00 | 0.00 | 48 | 1002.8 |
| 20260502211523 | 17 | 270 | 4.8 | 12.9 | 0.00 | 0.00 | 0.00 | 47 | 1002.8 |
| 20260502210519 | 18 | 270 | 3.2 | 12.9 | 0.00 | 0.00 | 0.00 | 47 | 1002.9 |
| 20260502205559 | 18 | 270 | 4.8 | 11.3 | 0.00 | 0.00 | 0.00 | 46 | 1002.8 |
| 20260502204524 | 18 | 270 | 8.0 | 16.1 | 0.00 | 0.00 | 0.00 | 45 | 1002.8 |
| 20260502203539 | 18 | 270 | 4.8 | 12.9 | 0.00 | 0.00 | 0.00 | 44 | 1002.9 |
| 20260502202519 | 18 | 270 | 6.4 | 12.9 | 0.00 | 0.00 | 0.00 | 43 | 1002.9 |
| 20260502201519 | 18 | 270 | 8.0 | 14.5 | 0.00 | 0.00 | 0.00 | 43 | 1002.8 |
| 20260502200520 | 18 | 270 | 6.4 | 14.5 | 0.00 | 0.00 | 0.00 | 42 | 1002.8 |
| 20260502195540 | 18 | 270 | 4.8 | 11.3 | 0.00 | 0.00 | 0.00 | 42 | 1002.6 |
| 20260502194520 | 18 | 270 | 4.8 | 14.5 | 0.00 | 0.00 | 0.00 | 42 | 1002.7 |
| 20260502193519 | 19 | 248 | 4.8 | 11.3 | 0.00 | 0.00 | 0.00 | 41 | 1002.7 |
| 20260502192539 | 19 | 270 | 6.4 | 14.5 | 0.00 | 0.00 | 0.00 | 40 | 1002.6 |
| 20260502191519 | 19 | 270 | 6.4 | 14.5 | 0.00 | 0.00 | 0.00 | 40 | 1002.6 |
| 20260502190519 | 19 | 270 | 4.8 | 14.5 | 0.00 | 0.00 | 0.00 | 40 | 1002.4 |
| 20260502185519 | 20 | 293 | 1.6 | 3.2 | 0.00 | 0.00 | 0.00 | 39 | 1002.4 |
| 20260502184519 | 20 | 0.0 | 3.2 | 0.00 | 0.00 | 0.00 | 38 | 1002.2 | |
| 20260502183539 | 21 | 270 | 3.2 | 8.0 | 0.00 | 0.00 | 0.00 | 36 | 1002.2 |
| 20260502182520 | 21 | 225 | 3.2 | 8.0 | 0.00 | 0.00 | 0.00 | 36 | 1002.1 |
| 20260502181519 | 21 | 225 | 3.2 | 17.7 | 0.00 | 0.00 | 0.00 | 35 | 1002.0 |
| 20260502180519 | 21 | 248 | 4.8 | 11.3 | 0.00 | 0.00 | 0.00 | 34 | 1002.0 |
| 20260502170519 | 23 | 248 | 8.0 | 19.3 | 0.00 | 0.00 | 0.00 | 32 | 1002.0 |
| 20260502163519 | 23 | 293 | 11.3 | 22.5 | 0.00 | 0.00 | 0.00 | 32 | 1002.3 |
| 20260502162519 | 23 | 270 | 8.0 | 27.4 | 0.00 | 0.00 | 0.00 | 31 | 1002.3 |
| 20260502161519 | 23 | 248 | 9.7 | 22.5 | 0.00 | 0.00 | 0.00 | 31 | 1002.4 |
| 20260502160523 | 23 | 270 | 6.4 | 17.7 | 0.00 | 0.00 | 0.00 | 32 | 1002.6 |
| 20260502151519 | 23 | 270 | 12.9 | 22.5 | 0.00 | 0.00 | 0.00 | 30 | 1003.2 |
| 20260502150539 | 23 | 270 | 11.3 | 22.5 | 0.00 | 0.00 | 0.00 | 31 | 1003.4 |
| 20260502130539 | 23 | 270 | 11.3 | 22.5 | 0.00 | 0.00 | 0.00 | 31 | 1004.9 |
| 20260502123539 | 22 | 248 | 12.9 | 25.7 | 0.00 | 0.00 | 0.00 | 32 | 1005.3 |
| 20260502122518 | 22 | 248 | 11.3 | 25.7 | 0.00 | 0.00 | 0.00 | 33 | 1005.4 |
| 20260502121518 | 22 | 270 | 11.3 | 24.1 | 0.00 | 0.00 | 0.00 | 33 | 1005.6 |
| 20260502120518 | 22 | 270 | 11.3 | 25.7 | 0.00 | 0.00 | 0.00 | 33 | 1005.8 |
| 20260502115519 | 22 | 270 | 11.3 | 30.6 | 0.00 | 0.00 | 0.00 | 33 | 1005.8 |
| 20260502114518 | 22 | 270 | 11.3 | 22.5 | 0.00 | 0.00 | 0.00 | 34 | 1006.0 |
| 20260502113539 | 22 | 270 | 11.3 | 25.7 | 0.00 | 0.00 | 0.00 | 34 | 1006.1 |
| 20260502112518 | 21 | 270 | 12.9 | 29.0 | 0.00 | 0.00 | 0.00 | 35 | 1006.2 |
| 20260502111539 | 21 | 270 | 11.3 | 22.5 | 0.00 | 0.00 | 0.00 | 34 | 1006.4 |
| 20260502110519 | 21 | 293 | 11.3 | 22.5 | 0.00 | 0.00 | 0.00 | 35 | 1006.5 |
| 20260502105518 | 21 | 248 | 11.3 | 22.5 | 0.00 | 0.00 | 0.00 | 35 | 1006.7 |
| 20260502104523 | 21 | 270 | 12.9 | 40.2 | 0.00 | 0.00 | 0.00 | 35 | 1006.8 |
| 20260502103521 | 21 | 248 | 11.3 | 29.0 | 0.00 | 0.00 | 0.00 | 35 | 1007.0 |
| 20260502102519 | 21 | 248 | 9.7 | 22.5 | 0.00 | 0.00 | 0.00 | 35 | 1007.0 |
| 20260502101519 | 20 | 270 | 12.9 | 24.1 | 0.00 | 0.00 | 0.00 | 35 | 1007.0 |
| 20260502100519 | 20 | 248 | 12.9 | 22.5 | 0.00 | 0.00 | 0.00 | 36 | 1007.2 |
| 20260502091518 | 19 | 270 | 11.3 | 25.7 | 0.00 | 0.00 | 0.00 | 36 | 1007.7 |
| 20260502090519 | 19 | 270 | 11.3 | 22.5 | 0.00 | 0.00 | 0.00 | 36 | 1007.9 |
| 20260502071518 | 16 | 270 | 9.7 | 19.3 | 0.00 | 0.00 | 0.00 | 40 | 1009.0 |
| 20260502070518 | 16 | 270 | 9.7 | 20.9 | 0.00 | 0.00 | 0.00 | 40 | 1008.9 |
| 20260502065518 | 15 | 270 | 11.3 | 22.5 | 0.00 | 0.00 | 0.00 | 41 | 1008.9 |
| 20260502064519 | 15 | 293 | 8.0 | 16.1 | 0.00 | 0.00 | 0.00 | 41 | 1009.1 |
| 20260502063546 | 15 | 270 | 9.7 | 20.9 | 0.00 | 0.00 | 0.00 | 42 | 1009.0 |
| 20260502062539 | 15 | 225 | 9.7 | 22.5 | 0.00 | 0.00 | 0.00 | 43 | 1009.1 |
| 20260502061518 | 14 | 270 | 9.7 | 17.7 | 0.00 | 0.00 | 0.00 | 44 | 1009.2 |
| 20260502060520 | 14 | 270 | 8.0 | 24.1 | 0.00 | 0.00 | 0.00 | 45 | 1009.2 |
| 20260502055520 | 13 | 270 | 9.7 | 20.9 | 0.00 | 0.00 | 0.00 | 46 | 1009.3 |
| 20260502054518 | 13 | 270 | 9.7 | 17.7 | 0.00 | 0.00 | 0.00 | 47 | 1009.3 |
| 20260502053518 | 13 | 270 | 9.7 | 20.9 | 0.00 | 0.00 | 0.00 | 49 | 1009.3 |
| 20260502052520 | 13 | 270 | 9.7 | 19.3 | 0.00 | 0.00 | 0.00 | 49 | 1009.3 |
| 20260502051520 | 12 | 270 | 8.0 | 17.7 | 0.00 | 0.00 | 0.00 | 51 | 1009.4 |
| 20260502050519 | 12 | 270 | 8.0 | 16.1 | 0.00 | 0.00 | 0.00 | 52 | 1009.4 |
| 20260502045521 | 12 | 270 | 9.7 | 17.7 | 0.00 | 0.00 | 0.00 | 53 | 1009.4 |
| 20260502044521 | 12 | 270 | 6.4 | 17.7 | 0.00 | 0.00 | 0.00 | 54 | 1009.4 |
| 20260502043520 | 12 | 248 | 8.0 | 16.1 | 0.00 | 0.00 | 0.00 | 56 | 1009.5 |
| 20260502042518 | 11 | 248 | 6.4 | 12.9 | 0.00 | 0.00 | 0.00 | 57 | 1009.5 |
| 20260502041520 | 11 | 248 | 4.8 | 12.9 | 0.00 | 0.00 | 0.00 | 58 | 1009.5 |
| 20260502040520 | 11 | 270 | 4.8 | 11.3 | 0.00 | 0.00 | 0.00 | 59 | 1009.6 |
| 20260502035520 | 11 | 248 | 3.2 | 11.3 | 0.00 | 0.00 | 0.00 | 58 | 1009.7 |
| 20260502034518 | 11 | 248 | 3.2 | 14.5 | 0.00 | 0.00 | 0.00 | 58 | 1009.8 |
| 20260502033520 | 11 | 270 | 4.8 | 11.3 | 0.00 | 0.00 | 0.00 | 57 | 1009.9 |
| 20260502032520 | 11 | 248 | 6.4 | 11.3 | 0.00 | 0.00 | 0.00 | 57 | 1010.0 |
| 20260502031520 | 11 | 270 | 4.8 | 12.9 | 0.00 | 0.00 | 0.00 | 58 | 1010.1 |
| 20260502030521 | 11 | 248 | 3.2 | 9.7 | 0.00 | 0.00 | 0.00 | 57 | 1010.2 |
| 20260502025520 | 11 | 270 | 3.2 | 6.4 | 0.00 | 0.00 | 0.00 | 57 | 1010.4 |
| 20260502024540 | 11 | 270 | 3.2 | 6.4 | 0.00 | 0.00 | 0.00 | 56 | 1010.5 |
| 20260502023520 | 11 | 248 | 6.4 | 11.3 | 0.00 | 0.00 | 0.00 | 55 | 1010.5 |
| 20260502022519 | 11 | 248 | 4.8 | 11.3 | 0.00 | 0.00 | 0.00 | 54 | 1010.6 |
| 20260502021520 | 11 | 270 | 4.8 | 9.7 | 0.00 | 0.00 | 0.00 | 54 | 1010.6 |
| 20260502020600 | 12 | 270 | 3.2 | 6.4 | 0.00 | 0.00 | 0.00 | 53 | 1010.7 |
| 20260502015520 | 12 | 270 | 4.8 | 9.7 | 0.00 | 0.00 | 0.00 | 53 | 1010.9 |
| 20260502014520 | 12 | 270 | 6.4 | 12.9 | 0.00 | 0.00 | 0.00 | 52 | 1010.9 |
| 20260502013520 | 12 | 270 | 6.4 | 11.3 | 0.00 | 0.00 | 0.00 | 52 | 1011.0 |
| 20260502012524 | 12 | 270 | 4.8 | 8.0 | 0.00 | 0.00 | 0.00 | 52 | 1011.0 |
| 20260502011524 | 12 | 293 | 4.8 | 11.3 | 0.00 | 0.00 | 0.00 | 51 | 1011.0 |
| 20260502010520 | 12 | 270 | 4.8 | 9.7 | 0.00 | 0.00 | 0.00 | 51 | 1011.0 |
| 20260502005520 | 12 | 270 | 6.4 | 14.5 | 0.00 | 0.00 | 0.00 | 50 | 1011.1 |